This demonstration page uses our WeatherBlox Daily Observations layout. Learn more.

Left ArrowRight Arrow

31.31129, -92.44514

Hourly Observations for August 25, 2022

Temp ( °F °C ) Dew Point ( °F °C ) Humidity (%) Winds ( mph kmh ) Pressure ( in mb ) Visibility ( mi km ) Precip ( " mm )
12:34 am 00:34 Cloudy 78 25.6 75 23.9 90 90 SSE 3 6 29.91 1013 10 16 0.00 0.00
12:53 am 00:53 Cloudy 78 25.6 75 23.9 90 90 Calm 29.92 1013 9 14 0.00 0.00
1:16 am 01:16 Cloudy 78 25.6 76 24.4 93 93 SSE 5 7 29.91 1013 7 11 0.00 0.00
1:26 am 01:26 Cloudy 78 25.6 76 24.4 93 93 SSE 5 7 29.91 1013 8 13 0.00 0.00
1:53 am 01:53 Cloudy 78 25.6 76 24.4 93 93 SSE 5 7 29.91 1013 8 13 0.00 0.00
2:53 am 02:53 Cloudy 78 25.6 75 23.9 90 90 SSE 5 7 29.91 1013 10 16 0.00 0.00
3:53 am 03:53 Cloudy 78 25.6 75 23.9 90 90 SE 5 7 29.91 1013 10 16 0.00 0.00
4:26 am 04:26 Cloudy 78 25.6 75 23.9 90 90 SSE 5 7 29.91 1013 10 16 0.00 0.00
4:40 am 04:40 Cloudy 78 25.6 75 23.9 90 90 SE 5 7 29.91 1013 10 16 0.00 0.00
4:53 am 04:53 Cloudy 78 25.6 75 23.9 90 90 SE 3 6 29.92 1013 10 16 0.00 0.00
5:14 am 05:14 Cloudy 78 25.6 75 23.9 90 90 SE 3 6 29.91 1013 10 16 0.00 0.00
5:32 am 05:32 Cloudy 78 25.6 75 23.9 90 90 SSE 3 6 29.91 1013 10 16 0.00 0.00
5:53 am 05:53 Cloudy 78 25.6 75 23.9 90 90 Calm 29.92 1013 10 16 0.00 0.00
6:53 am 06:53 Cloudy 78 25.6 75 23.9 90 90 Calm 29.93 1014 9 14 0.00 0.00
7:53 am 07:53 Cloudy 78 25.6 75 23.9 90 90 S 3 6 29.95 1014 7 11 0.00 0.00
8:31 am 08:31 Cloudy with Light Rain 78 25.6 75 23.9 90 90 S 3 6 29.95 1014 4 6 0.01 0.13
8:53 am 08:53 Cloudy 78 25.6 75 23.9 90 90 SSW 3 6 29.96 1015 7 11 0.01 0.13
9:06 am 09:06 Cloudy 78 25.6 75 23.9 90 90 Calm 29.96 1014 8 13 0.00 0.00
9:53 am 09:53 Cloudy 79 26.1 76 24.4 90 90 SSW 5 7 29.97 1015 10 16 0.01 0.13
10:38 am 10:38 Cloudy 81 27.2 76 24.4 85 85 SW 5 7 29.97 1015 10 16 0.00 0.00
10:53 am 10:53 Cloudy 82 27.8 76 24.4 82 82 VRB 5 7 29.98 1015 10 16 0.00 0.00
11:00 am 11:00 Cloudy 82 27.8 76 24.4 82 82 SSW 6 9 29.97 1015 10 16 0.00 0.00
11:53 am 11:53 Cloudy 84 28.9 75 23.9 74 74 Calm 29.98 1015 10 16 0.00 0.00
12:00 pm 12:00 Mostly Cloudy 84 28.9 76 24.4 77 77 WSW 3 6 29.97 1015 10 16 0.00 0.00
12:53 pm 12:53 Mostly Sunny 86 30 77 25 75 75 WNW 9 15 29.95 1014 10 16 0.00 0.00
1:53 pm 13:53 Partly Cloudy 89 31.7 75 23.9 63 63 VRB 5 7 29.93 1014 10 16 0.00 0.00
2:05 pm 14:05 Mostly Cloudy 88 31.1 76 24.4 68 68 VRB 6 9 29.92 1013 10 16 0.00 0.00
2:18 pm 14:18 Mostly Cloudy 89 31.7 76 24.4 65 65 NW 7 11 29.92 1013 10 16 0.00 0.00
2:53 pm 14:53 Cloudy 89 31.7 75 23.9 63 63 NNW 7 11 29.91 1013 10 16 0.00 0.00
3:53 pm 15:53 Cloudy with Light Rain 85 29.4 76 24.4 75 75 NNW 8 13 29.92 1013 7 11 0.01 0.25
3:59 pm 15:59 Cloudy with Heavy Rain 83 28.3 76 24.4 79 79 NNW 10 17 29.91 1013 3 4 0.02 0.51
4:05 pm 16:05 Cloudy with Heavy Rain 82 27.8 76 24.4 82 82 N 13 20 29.91 1013 2 2 0.06 1.52
4:17 pm 16:17 Cloudy with Light Rain 82 27.8 76 24.4 82 82 NNE 9 15 29.91 1013 3 5 0.10 2.54
4:53 pm 16:53 Mostly Cloudy 84 28.9 76 24.4 77 77 NNE 8 13 29.91 1013 10 16 0.10 2.54
6:04 pm 18:04 Mostly Cloudy 84 28.9 75 23.9 74 74 NNE 9 15 29.92 1013 10 16 0.00 0.00
6:23 pm 18:23 Cloudy 83 28.3 74 23.3 74 74 NNE 8 13 29.92 1013 10 16 0.00 0.00
6:53 pm 18:53 Mostly Sunny 83 28.3 75 23.9 77 77 NNE 7 11 29.91 1013 10 16 0.00 0.00
7:44 pm 19:44 Cloudy 82 27.8 75 23.9 79 79 E 5 7 29.93 1013 10 16 0.00 0.00
7:53 pm 19:53 Cloudy 81 27.2 76 24.4 85 85 ESE 10 17 29.94 1014 10 16 0.00 0.00
8:12 pm 20:12 Mostly Cloudy 80 26.7 75 23.9 85 85 ESE 8 13 29.94 1014 10 16 0.00 0.00
8:53 pm 20:53 Partly Cloudy 79 26.1 75 23.9 88 88 Calm 29.96 1014 10 16 0.00 0.00
9:26 pm 21:26 Mostly Cloudy 79 26.1 75 23.9 88 88 ESE 5 7 29.96 1014 10 16 0.00 0.00
9:53 pm 21:53 Mostly Cloudy 79 26.1 74 23.3 85 85 SSE 8 13 29.97 1015 10 16 0.00 0.00
10:04 pm 22:04 Partly Cloudy 78 25.6 74 23.3 87 87 SE 6 9 29.97 1015 10 16 0.00 0.00
10:53 pm 22:53 Clear 78 25.6 74 23.3 87 87 Calm 29.96 1015 10 16 0.00 0.00
11:53 pm 23:53 Clear 77 25 74 23.3 90 90 Calm 29.94 1014 10 16 0.00 0.00

Powered by AerisWeather